Location: Prague
(50.0830°N, 14.4670°E)
Time: 06:07:00
(UTC+02:00)

ISS - Pass Details

Date: 30 September 2021
Orbit: 417 x 423 km, 51.6° (Epoch: 20 October)

Event Time Altitude Azimuth Distance (km) Brightness Sun altitude
Rises 19:25:41 0° 284° (WNW) 2,364 2.3 -7.8°
Reaches altitude 10° 19:27:47 10° 285° (WNW) 1,500 0.7 -8.1°
Maximum altitude 19:31:09 81° 13° (NNE) 429 -3.7 -8.6°
Enters shadow 19:34:06 13° 101° (E) 1,328 -1.9 -9.1°
